sat.trackr.live / text

‹ back to catalog

STARLINK-11226 [DTC]

NORAD 60907 · 2024-154E

PAYLOAD ACTIVE UNKNOWN

§ Identity

Operator
Country
US
Launch date
2024-08-31
Launch site
AFETR
Launch vehicle
Mass (kg)
RCS (m²)

Purposes: comms

External: N2YO · Heavens-Above · Gunter

§ Orbital elements

Epoch: 2026-09-21T16:13:34.934592Z

Period
91.74 min
Inclination
53.1590°
Eccentricity
0.0000101
Mean motion
15.69715386 rev/d
Perigee alt
359.6 km
Apogee alt
359.8 km
Semi-major
6,737.8 km
B*
8.7153e-6
RAAN
245.3155°
Arg perigee
307.4797°
Mean anomaly
52.6211°
Rev number
11,929

§ Raw data

STARLINK-11226 [DTC]1 60907U 24154E   26264.67609878  .00000469  00000+0  87153-5 0  99962 60907  53.1590 245.3155 0000101 307.4797  52.6211 15.69715386119291

JSON: /api/v1/satellites/60907 · /tle

For live sub-satellite position, see the globe view (requires WebGL).

§ Visibility from observer

Set your observer location to see the next 7 days of passes ≥ 10°. The values pass through the URL so the page stays shareable.

No JS? Fill the form by hand. The geolocation button needs JavaScript.